| time (UTC) | temp F | wind direction | speed knots | gust knots | rain 1hr in | rain 24hr in | rain mn in | humidity % | barometer mb |
| 20260507221523 | 76 | 304 | 0.9 | 5.2 | 0.00 | 0.00 | 0.00 | 83 | 1015.3 |
| 20260507221207 | 77 | 31 | 1.7 | 4.3 | 0.00 | 0.00 | 0.00 | 82 | 1016.9 |
| 20260507220705 | 77 | 344 | 1.7 | 6.1 | 0.00 | 0.00 | 0.00 | 82 | 1016.7 |
| 20260507220203 | 77 | 69 | 0.9 | 6.1 | 0.00 | 0.00 | 0.00 | 82 | 1016.9 |
| 20260507220022 | 77 | 320 | 0.0 | 2.6 | 0.00 | 0.00 | 0.00 | 82 | 1015.4 |
| 20260507215703 | 78 | 74 | 1.7 | 3.5 | 0.00 | 0.00 | 0.00 | 81 | 1016.9 |
| 20260507215203 | 78 | 92 | 1.7 | 4.3 | 0.00 | 0.00 | 0.00 | 80 | 1016.8 |
| 20260507214701 | 78 | 169 | 1.7 | 4.3 | 0.00 | 0.00 | 0.00 | 80 | 1016.9 |
| 20260507214519 | 78 | 105 | 0.0 | 4.3 | 0.00 | 0.00 | 0.00 | 80 | 1015.2 |
| 20260507214202 | 78 | 196 | 1.7 | 4.3 | 0.00 | 0.00 | 0.00 | 79 | 1016.7 |
| 20260507213703 | 79 | 109 | 0.9 | 4.3 | 0.00 | 0.00 | 0.00 | 80 | 1016.8 |
| 20260507213433 | 79 | 126 | 0.9 | 5.2 | 0.00 | 0.00 | 0.00 | 80 | 1016.7 |
| 20260507213008 | 78 | 52 | 0.9 | 4.3 | 0.00 | 0.00 | 0.00 | 80 | 1015.1 |
| 20260507212656 | 79 | 342 | 0.9 | 5.2 | 0.00 | 0.00 | 0.00 | 80 | 1016.5 |
| 20260507212150 | 79 | 5 | 1.7 | 7.0 | 0.00 | 0.00 | 0.00 | 79 | 1016.5 |
| 20260507211641 | 79 | 15 | 1.7 | 7.0 | 0.00 | 0.00 | 0.00 | 78 | 1016.4 |
| 20260507211600 | 79 | 30 | 1.7 | 7.0 | 0.00 | 0.00 | 0.00 | 78 | 1014.8 |
| 20260507211137 | 80 | 264 | 1.7 | 4.3 | 0.00 | 0.00 | 0.00 | 79 | 1016.5 |
| 20260507210635 | 80 | 26 | 1.7 | 5.2 | 0.00 | 0.00 | 0.00 | 78 | 1016.4 |
| 20260507210134 | 80 | 5 | 1.7 | 5.2 | 0.00 | 0.00 | 0.00 | 78 | 1016.6 |
| 20260507210049 | 80 | 26 | 1.7 | 5.2 | 0.00 | 0.00 | 0.00 | 78 | 1015.0 |
| 20260507205634 | 80 | 281 | 1.7 | 6.1 | 0.00 | 0.00 | 0.00 | 78 | 1016.5 |
| 20260507205133 | 80 | 132 | 1.7 | 6.1 | 0.00 | 0.00 | 0.00 | 77 | 1016.6 |
| 20260507204633 | 81 | 339 | 1.7 | 5.2 | 0.00 | 0.00 | 0.00 | 76 | 1016.5 |
| 20260507204540 | 80 | 5 | 1.7 | 5.2 | 0.00 | 0.00 | 0.00 | 77 | 1014.9 |
| 20260507204134 | 81 | 355 | 1.7 | 5.2 | 0.00 | 0.00 | 0.00 | 77 | 1016.5 |
| 20260507203633 | 81 | 346 | 1.7 | 5.2 | 0.00 | 0.00 | 0.00 | 77 | 1016.5 |
| 20260507203132 | 81 | 195 | 1.7 | 5.2 | 0.00 | 0.00 | 0.00 | 76 | 1016.6 |
| 20260507203033 | 81 | 209 | 0.9 | 5.2 | 0.00 | 0.00 | 0.00 | 77 | 1014.9 |
| 20260507202630 | 81 | 67 | 1.7 | 5.2 | 0.00 | 0.00 | 0.00 | 76 | 1016.4 |
| 20260507202129 | 82 | 317 | 1.7 | 5.2 | 0.00 | 0.00 | 0.00 | 76 | 1016.6 |
| 20260507201627 | 82 | 29 | 1.7 | 6.1 | 0.00 | 0.00 | 0.00 | 77 | 1016.5 |
| 20260507201507 | 81 | 317 | 1.7 | 6.1 | 0.00 | 0.00 | 0.00 | 77 | 1015.0 |
| 20260507201354 | 81 | 33 | 1.7 | 6.1 | 0.00 | 0.00 | 0.00 | 77 | 1016.5 |
| 20260507200621 | 81 | 72 | 1.7 | 6.1 | 0.00 | 0.00 | 0.00 | 77 | 1016.5 |
| 20260507200350 | 81 | 225 | 1.7 | 5.2 | 0.00 | 0.00 | 0.00 | 76 | 1016.5 |
| 20260507200002 | 81 | 130 | 1.7 | 5.2 | 0.00 | 0.00 | 0.00 | 76 | 1014.9 |
| 20260507195619 | 81 | 38 | 1.7 | 5.2 | 0.00 | 0.00 | 0.00 | 77 | 1016.5 |
| 20260507195119 | 81 | 86 | 1.7 | 6.1 | 0.00 | 0.00 | 0.00 | 76 | 1016.4 |
| 20260507194618 | 81 | 14 | 1.7 | 6.1 | 0.00 | 0.00 | 0.00 | 77 | 1016.5 |
| 20260507194552 | 81 | 5 | 2.6 | 6.1 | 0.00 | 0.00 | 0.00 | 76 | 1014.9 |
| 20260507194118 | 81 | 26 | 1.7 | 5.2 | 0.00 | 0.00 | 0.00 | 78 | 1016.6 |
| 20260507193854 | 81 | 24 | 2.6 | 9.6 | 0.00 | 0.00 | 0.00 | 75 | 1016.8 |
| 20260507193119 | 81 | 15 | 2.6 | 9.6 | 0.00 | 0.00 | 0.00 | 75 | 1017.0 |
| 20260507193049 | 81 | 5 | 3.5 | 9.6 | 0.00 | 0.00 | 0.00 | 75 | 1015.4 |
| 20260507192618 | 82 | 22 | 2.6 | 5.2 | 0.00 | 0.00 | 0.00 | 76 | 1017.0 |
| 20260507192117 | 82 | 26 | 2.6 | 7.8 | 0.00 | 0.00 | 0.00 | 75 | 1017.1 |
| 20260507191618 | 82 | 355 | 2.6 | 7.8 | 0.00 | 0.00 | 0.00 | 76 | 1017.1 |
| 20260507191538 | 82 | 355 | 2.6 | 7.8 | 0.00 | 0.00 | 0.00 | 75 | 1015.5 |
| 20260507191119 | 82 | 355 | 1.7 | 7.0 | 0.00 | 0.00 | 0.00 | 76 | 1017.1 |
| 20260507190619 | 82 | 227 | 2.6 | 6.1 | 0.00 | 0.00 | 0.00 | 77 | 1017.1 |
| 20260507190118 | 82 | 27 | 3.5 | 7.8 | 0.00 | 0.00 | 0.00 | 77 | 1017.0 |
| 20260507190032 | 81 | 103 | 2.6 | 7.8 | 0.00 | 0.00 | 0.00 | 76 | 1015.4 |
| 20260507185620 | 82 | 89 | 1.7 | 7.8 | 0.00 | 0.00 | 0.00 | 74 | 1016.9 |
| 20260507185119 | 82 | 17 | 1.7 | 7.8 | 0.00 | 0.00 | 0.00 | 78 | 1017.0 |
| 20260507184620 | 82 | 5 | 2.6 | 7.8 | 0.00 | 0.00 | 0.00 | 75 | 1017.1 |
| 20260507184517 | 81 | 235 | 2.6 | 7.8 | 0.00 | 0.00 | 0.00 | 75 | 1015.4 |
| 20260507184117 | 82 | 19 | 2.6 | 6.1 | 0.00 | 0.00 | 0.00 | 76 | 1017.2 |
| 20260507183847 | 82 | 242 | 2.6 | 5.2 | 0.00 | 0.00 | 0.00 | 77 | 1017.1 |
| 20260507183116 | 82 | 313 | 2.6 | 7.0 | 0.00 | 0.00 | 0.00 | 77 | 1017.1 |
| 20260507183021 | 81 | 238 | 2.6 | 7.0 | 0.00 | 0.00 | 0.00 | 78 | 1015.5 |
| 20260507182613 | 81 | 146 | 2.6 | 7.0 | 0.00 | 0.00 | 0.00 | 78 | 1017.2 |
| 20260507182114 | 82 | 329 | 2.6 | 5.2 | 0.00 | 0.00 | 0.00 | 76 | 1017.1 |
| 20260507181611 | 82 | 61 | 2.6 | 7.8 | 0.00 | 0.00 | 0.00 | 77 | 1017.2 |
| 20260507181503 | 82 | 79 | 1.7 | 7.8 | 0.00 | 0.00 | 0.00 | 75 | 1015.6 |
| 20260507181109 | 82 | 0 | 1.7 | 7.8 | 0.00 | 0.00 | 0.00 | 75 | 1017.2 |
| 20260507180610 | 82 | 34 | 1.7 | 7.0 | 0.00 | 0.00 | 0.00 | 76 | 1017.3 |
| 20260507180109 | 82 | 288 | 2.6 | 7.0 | 0.00 | 0.00 | 0.00 | 74 | 1017.4 |
| 20260507180057 | 82 | 334 | 1.7 | 7.0 | 0.00 | 0.00 | 0.00 | 75 | 1015.9 |
| 20260507175609 | 82 | 345 | 1.7 | 5.2 | 0.00 | 0.00 | 0.00 | 76 | 1017.5 |
| 20260507175107 | 82 | 306 | 1.7 | 5.2 | 0.00 | 0.00 | 0.00 | 73 | 1017.5 |
| 20260507174608 | 82 | 9 | 2.6 | 6.1 | 0.00 | 0.00 | 0.00 | 75 | 1017.5 |
| 20260507174544 | 81 | 333 | 1.7 | 6.1 | 0.00 | 0.00 | 0.00 | 76 | 1015.9 |
| 20260507174107 | 82 | 329 | 1.7 | 6.1 | 0.00 | 0.00 | 0.00 | 75 | 1017.5 |
| 20260507173607 | 82 | 236 | 1.7 | 7.0 | 0.00 | 0.00 | 0.00 | 74 | 1017.6 |
| 20260507173106 | 82 | 233 | 1.7 | 7.0 | 0.00 | 0.00 | 0.00 | 77 | 1017.6 |
| 20260507173025 | 81 | 5 | 2.6 | 7.0 | 0.00 | 0.00 | 0.00 | 77 | 1016.1 |
| 20260507172607 | 81 | 339 | 1.7 | 6.1 | 0.00 | 0.00 | 0.00 | 77 | 1017.7 |
| 20260507172106 | 81 | 15 | 2.6 | 10.4 | 0.00 | 0.00 | 0.00 | 75 | 1018.0 |
| 20260507171605 | 82 | 31 | 1.7 | 10.4 | 0.00 | 0.00 | 0.00 | 75 | 1018.0 |
| 20260507171519 | 81 | 207 | 2.6 | 10.4 | 0.00 | 0.00 | 0.00 | 75 | 1016.5 |
| 20260507171102 | 82 | 347 | 1.7 | 7.0 | 0.00 | 0.00 | 0.00 | 78 | 1018.0 |
| 20260507170602 | 81 | 333 | 2.6 | 7.0 | 0.00 | 0.00 | 0.00 | 78 | 1018.1 |
| 20260507170017 | 81 | 42 | 2.6 | 5.2 | 0.00 | 0.00 | 0.00 | 77 | 1016.6 |
| 20260507165604 | 81 | 17 | 1.7 | 5.2 | 0.00 | 0.00 | 0.00 | 76 | 1018.3 |
| 20260507165104 | 81 | 101 | 2.6 | 5.2 | 0.00 | 0.00 | 0.00 | 77 | 1018.3 |
| 20260507164604 | 81 | 174 | 2.6 | 6.1 | 0.00 | 0.00 | 0.00 | 75 | 1018.5 |
| 20260507164510 | 81 | 11 | 1.7 | 6.1 | 0.00 | 0.00 | 0.00 | 75 | 1017.0 |
| 20260507164337 | 81 | 103 | 1.7 | 7.0 | 0.00 | 0.00 | 0.00 | 76 | 1018.6 |
| 20260507163616 | 81 | 5 | 1.7 | 5.2 | 0.00 | 0.00 | 0.00 | 77 | 1018.7 |
| 20260507163603 | 81 | 5 | 1.7 | 7.0 | 0.00 | 0.00 | 0.00 | 78 | 1018.8 |
| 20260507163100 | 81 | 250 | 2.6 | 5.2 | 0.00 | 0.00 | 0.00 | 77 | 1017.1 |
| 20260507162603 | 81 | 337 | 1.7 | 5.2 | 0.00 | 0.00 | 0.00 | 76 | 1018.8 |
| 20260507162104 | 81 | 15 | 1.7 | 4.3 | 0.00 | 0.00 | 0.00 | 76 | 1018.9 |
| 20260507161610 | 80 | 66 | 0.0 | 4.3 | 0.00 | 0.00 | 0.00 | 80 | 1017.3 |
| 20260507161604 | 81 | 66 | 1.7 | 4.3 | 0.00 | 0.00 | 0.00 | 80 | 1018.9 |
| 20260507161337 | 81 | 197 | 1.7 | 6.1 | 0.00 | 0.00 | 0.00 | 78 | 1019.1 |
| 20260507161102 | 81 | 328 | 2.6 | 6.1 | 0.00 | 0.00 | 0.00 | 80 | 1019.0 |
| 20260507160600 | 80 | 88 | 2.6 | 6.1 | 0.00 | 0.00 | 0.00 | 77 | 1019.1 |
| 20260507160050 | 80 | 220 | 1.7 | 6.1 | 0.00 | 0.00 | 0.00 | 78 | 1017.5 |
| 20260507155600 | 81 | 0 | 1.7 | 6.1 | 0.00 | 0.00 | 0.00 | 77 | 1019.2 |
| 20260507155105 | 80 | 257 | 2.6 | 9.6 | 0.00 | 0.00 | 0.00 | 79 | 1019.2 |
| 20260507155100 | 80 | 224 | 1.7 | 6.1 | 0.00 | 0.00 | 0.00 | 80 | 1019.2 |
| 20260507154533 | 80 | 360 | 2.6 | 9.6 | 0.00 | 0.00 | 0.00 | 79 | 1017.7 |
| 20260507154337 | 80 | 167 | 2.6 | 9.6 | 0.00 | 0.00 | 0.00 | 77 | 1019.2 |
| 20260507153557 | 80 | 32 | 1.7 | 5.2 | 0.00 | 0.00 | 0.00 | 79 | 1019.3 |
| 20260507153102 | 79 | 339 | 1.7 | 4.3 | 0.00 | 0.00 | 0.00 | 84 | 1019.3 |
| 20260507153057 | 80 | 0 | 1.7 | 4.3 | 0.00 | 0.00 | 0.00 | 83 | 1019.3 |
| 20260507153024 | 79 | 360 | 1.7 | 4.3 | 0.00 | 0.00 | 0.00 | 81 | 1017.8 |
| 20260507152329 | 79 | 327 | 1.7 | 6.1 | 0.00 | 0.00 | 0.00 | 82 | 1019.4 |
| 20260507151557 | 79 | 34 | 1.7 | 6.1 | 0.00 | 0.00 | 0.00 | 84 | 1019.4 |
| 20260507151515 | 78 | 283 | 1.7 | 6.1 | 0.00 | 0.00 | 0.00 | 81 | 1017.9 |
| 20260507151054 | 79 | 346 | 1.7 | 4.3 | 0.00 | 0.00 | 0.00 | 82 | 1019.4 |
| 20260507150556 | 79 | 348 | 1.7 | 6.1 | 0.00 | 0.00 | 0.00 | 84 | 1019.4 |
| 20260507150327 | 79 | 65 | 1.7 | 6.1 | 0.00 | 0.00 | 0.00 | 83 | 1019.5 |
| 20260507150002 | 78 | 18 | 1.7 | 4.3 | 0.00 | 0.00 | 0.00 | 84 | 1018.0 |
| 20260507145819 | 78 | 17 | 1.7 | 5.2 | 0.00 | 0.00 | 0.00 | 85 | 1019.5 |
| 20260507145044 | 78 | 346 | 0.9 | 5.2 | 0.00 | 0.00 | 0.00 | 86 | 1019.5 |
| 20260507144553 | 77 | 246 | 0.0 | 3.5 | 0.00 | 0.00 | 0.00 | 86 | 1018.1 |
| 20260507144545 | 77 | 246 | 0.9 | 3.5 | 0.00 | 0.00 | 0.00 | 86 | 1019.6 |
| 20260507144316 | 77 | 355 | 0.9 | 3.5 | 0.00 | 0.00 | 0.00 | 87 | 1019.6 |
| 20260507143545 | 77 | 344 | 0.9 | 3.5 | 0.00 | 0.00 | 0.00 | 86 | 1019.5 |
| 20260507143049 | 76 | 12 | 0.9 | 2.6 | 0.00 | 0.00 | 0.00 | 86 | 1018.2 |
| 20260507143047 | 77 | 12 | 0.9 | 3.5 | 0.00 | 0.00 | 0.00 | 86 | 1019.7 |
| 20260507142540 | 77 | 217 | 0.9 | 3.5 | 0.00 | 0.00 | 0.00 | 86 | 1019.4 |
| 20260507142311 | 76 | 355 | 0.9 | 4.3 | 0.00 | 0.00 | 0.00 | 86 | 1019.6 |
| 20260507141538 | 77 | 315 | 1.7 | 4.3 | 0.00 | 0.00 | 0.00 | 86 | 1019.7 |
| 20260507141532 | 76 | 315 | 0.9 | 4.3 | 0.00 | 0.00 | 0.00 | 87 | 1018.3 |
| 20260507141309 | 77 | 38 | 0.9 | 5.2 | 0.00 | 0.00 | 0.00 | 87 | 1019.7 |
| 20260507140538 | 77 | 70 | 0.9 | 5.2 | 0.00 | 0.00 | 0.00 | 86 | 1019.8 |
| 20260507140038 | 77 | 67 | 0.9 | 3.5 | 0.00 | 0.00 | 0.00 | 85 | 1019.8 |
| 20260507140014 | 76 | 67 | 0.0 | 3.5 | 0.00 | 0.00 | 0.00 | 85 | 1018.3 |
| 20260507135539 | 77 | 343 | 0.9 | 4.3 | 0.00 | 0.00 | 0.00 | 85 | 1019.7 |
| 20260507135315 | 77 | 286 | 0.9 | 5.2 | 0.00 | 0.00 | 0.00 | 85 | 1019.7 |
| 20260507134533 | 77 | 77 | 0.9 | 5.2 | 0.00 | 0.00 | 0.00 | 86 | 1019.7 |
| 20260507134509 | 76 | 259 | 0.9 | 5.2 | 0.00 | 0.00 | 0.00 | 86 | 1018.3 |
| 20260507134023 | 77 | 73 | 0.9 | 3.5 | 0.00 | 0.00 | 0.00 | 85 | 1019.6 |
| 20260507133058 | 76 | 27 | 0.9 | 5.2 | 0.00 | 0.00 | 0.00 | 84 | 1018.2 |
| 20260507133023 | 77 | 28 | 1.7 | 5.2 | 0.00 | 0.00 | 0.00 | 84 | 1019.6 |
| 20260507132758 | 76 | 325 | 0.9 | 5.2 | 0.00 | 0.00 | 0.00 | 86 | 1019.5 |
| 20260507132251 | 76 | 319 | 0.9 | 3.5 | 0.00 | 0.00 | 0.00 | 88 | 1019.3 |
| 20260507131542 | 75 | 5 | 0.0 | 3.5 | 0.00 | 0.00 | 0.00 | 88 | 1017.9 |
| 20260507131519 | 76 | 5 | 0.9 | 3.5 | 0.00 | 0.00 | 0.00 | 88 | 1019.4 |
| 20260507131020 | 75 | 343 | 1.7 | 5.2 | 0.00 | 0.00 | 0.00 | 89 | 1019.4 |
| 20260507130521 | 75 | 328 | 1.7 | 7.0 | 0.00 | 0.00 | 0.00 | 90 | 1019.3 |
| 20260507130052 | 74 | 341 | 1.7 | 7.0 | 0.00 | 0.00 | 0.00 | 89 | 1017.8 |
| 20260507130021 | 74 | 298 | 0.9 | 7.0 | 0.00 | 0.00 | 0.00 | 90 | 1019.3 |
| 20260507125520 | 74 | 5 | 0.9 | 1.7 | 0.00 | 0.00 | 0.00 | 91 | 1019.3 |
| 20260507125020 | 73 | 277 | 0.0 | 1.7 | 0.00 | 0.00 | 0.00 | 91 | 1019.2 |
| 20260507124528 | 72 | 211 | 0.0 | 1.7 | 0.00 | 0.00 | 0.00 | 92 | 1017.8 |
| 20260507124523 | 73 | 211 | 0.0 | 3.5 | 0.00 | 0.00 | 0.00 | 92 | 1019.1 |
| 20260507124016 | 72 | 351 | 0.0 | 3.5 | 0.00 | 0.00 | 0.00 | 93 | 1019.2 |
| 20260507123513 | 72 | 52 | 0.0 | 1.7 | 0.00 | 0.00 | 0.00 | 93 | 1019.2 |
| 20260507123110 | 71 | 52 | 0.0 | 1.7 | 0.00 | 0.00 | 0.00 | 93 | 1017.8 |
| 20260507123015 | 72 | 328 | 0.0 | 1.7 | 0.00 | 0.00 | 0.00 | 94 | 1019.0 |
| 20260507122510 | 71 | 63 | 0.0 | 0.9 | 0.00 | 0.00 | 0.00 | 94 | 1019.0 |
| 20260507122009 | 71 | 32 | 0.0 | 1.7 | 0.00 | 0.00 | 0.00 | 94 | 1018.9 |
| 20260507121738 | 71 | 32 | 0.0 | 1.7 | 0.00 | 0.00 | 0.00 | 95 | 1018.7 |
| 20260507121621 | 70 | 32 | 0.0 | 1.7 | 0.00 | 0.00 | 0.00 | 95 | 1017.4 |
| 20260507121004 | 70 | 32 | 0.0 | 1.7 | 0.00 | 0.00 | 0.00 | 95 | 1018.7 |
| 20260507120738 | 70 | 32 | 0.0 | 1.7 | 0.00 | 0.00 | 0.00 | 94 | 1018.7 |
| 20260507120035 | 69 | 32 | 0.0 | 3.5 | 0.00 | 0.00 | 0.00 | 94 | 1017.2 |
| 20260507120005 | 70 | 32 | 0.0 | 3.5 | 0.00 | 0.00 | 0.00 | 94 | 1018.6 |
| 20260507115504 | 69 | 32 | 0.0 | 3.5 | 0.00 | 0.00 | 0.00 | 94 | 1018.6 |
| 20260507115006 | 69 | 21 | 0.0 | 1.7 | 0.00 | 0.00 | 0.00 | 94 | 1018.6 |
| 20260507114522 | 69 | 34 | 0.0 | 1.7 | 0.00 | 0.00 | 0.00 | 94 | 1017.2 |
| 20260507114500 | 69 | 34 | 0.0 | 1.7 | 0.00 | 0.00 | 0.00 | 94 | 1018.5 |
| 20260507113959 | 69 | 34 | 0.0 | 1.7 | 0.00 | 0.00 | 0.00 | 94 | 1018.4 |
| 20260507113458 | 69 | 13 | 0.0 | 1.7 | 0.00 | 0.00 | 0.00 | 94 | 1018.5 |
| 20260507113229 | 69 | 63 | 0.0 | 1.7 | 0.00 | 0.00 | 0.00 | 94 | 1018.4 |
| 20260507113105 | 68 | 63 | 0.0 | 1.7 | 0.00 | 0.00 | 0.00 | 94 | 1017.0 |
| 20260507112459 | 68 | 63 | 0.0 | 1.7 | 0.00 | 0.00 | 0.00 | 94 | 1018.4 |
| 20260507112001 | 68 | 97 | 0.0 | 1.7 | 0.00 | 0.00 | 0.00 | 94 | 1018.5 |
| 20260507111555 | 68 | 58 | 0.0 | 0.0 | 0.00 | 0.00 | 0.00 | 94 | 1017.2 |
| 20260507111500 | 68 | 58 | 0.0 | 0.0 | 0.00 | 0.00 | 0.00 | 94 | 1018.5 |
| 20260507111001 | 68 | 58 | 0.0 | 0.0 | 0.00 | 0.00 | 0.00 | 94 | 1018.3 |
| 20260507110500 | 68 | 46 | 0.0 | 0.9 | 0.00 | 0.00 | 0.00 | 94 | 1018.4 |
| 20260507110056 | 67 | 25 | 0.0 | 0.9 | 0.00 | 0.00 | 0.00 | 94 | 1017.0 |
| 20260507110003 | 68 | 25 | 0.0 | 1.7 | 0.00 | 0.00 | 0.00 | 94 | 1018.4 |
| 20260507105457 | 68 | 49 | 0.0 | 1.7 | 0.00 | 0.00 | 0.00 | 93 | 1018.4 |
| 20260507104955 | 68 | 65 | 0.0 | 3.5 | 0.00 | 0.00 | 0.00 | 93 | 1018.3 |
| 20260507104726 | 68 | 83 | 0.9 | 3.5 | 0.00 | 0.00 | 0.00 | 93 | 1018.2 |
| 20260507104610 | 67 | 69 | 0.0 | 3.5 | 0.00 | 0.00 | 0.00 | 93 | 1016.9 |
| 20260507103956 | 68 | 36 | 0.9 | 3.5 | 0.00 | 0.00 | 0.00 | 93 | 1018.2 |
| 20260507103456 | 69 | 26 | 0.0 | 3.5 | 0.00 | 0.00 | 0.00 | 93 | 1018.1 |
| 20260507103023 | 68 | 287 | 0.0 | 0.9 | 0.00 | 0.00 | 0.00 | 94 | 1016.7 |
| 20260507102957 | 69 | 287 | 0.0 | 1.7 | 0.00 | 0.00 | 0.00 | 94 | 1018.1 |
| 20260507102454 | 69 | 287 | 0.0 | 3.5 | 0.00 | 0.00 | 0.00 | 94 | 1018.0 |
| 20260507101953 | 68 | 211 | 0.0 | 3.5 | 0.00 | 0.00 | 0.00 | 94 | 1017.8 |
| 20260507101724 | 68 | 254 | 0.0 | 0.0 | 0.00 | 0.00 | 0.00 | 94 | 1017.8 |
| 20260507101603 | 68 | 254 | 0.0 | 0.0 | 0.00 | 0.00 | 0.00 | 94 | 1016.6 |
| 20260507100952 | 68 | 254 | 0.0 | 0.9 | 0.00 | 0.00 | 0.00 | 94 | 1017.8 |
| 20260507100452 | 68 | 254 | 0.0 | 0.9 | 0.00 | 0.00 | 0.00 | 94 | 1017.7 |
| 20260507100106 | 67 | 254 | 0.0 | 0.9 | 0.00 | 0.00 | 0.00 | 94 | 1016.5 |
| 20260507095954 | 68 | 254 | 0.0 | 1.7 | 0.00 | 0.00 | 0.00 | 94 | 1017.8 |
| 20260507095453 | 68 | 244 | 0.0 | 1.7 | 0.00 | 0.00 | 0.00 | 93 | 1018.1 |
| 20260507094950 | 67 | 244 | 0.0 | 0.9 | 0.00 | 0.00 | 0.00 | 93 | 1017.8 |
| 20260507094541 | 67 | 17 | 0.0 | 0.0 | 0.00 | 0.00 | 0.00 | 93 | 1016.6 |
| 20260507094451 | 68 | 17 | 0.0 | 0.0 | 0.00 | 0.00 | 0.00 | 93 | 1017.7 |
| 20260507093950 | 68 | 17 | 0.0 | 0.0 | 0.00 | 0.00 | 0.00 | 93 | 1017.8 |
| 20260507093449 | 68 | 17 | 0.0 | 0.0 | 0.00 | 0.00 | 0.00 | 93 | 1017.8 |
| 20260507093226 | 68 | 17 | 0.0 | 0.0 | 0.00 | 0.00 | 0.00 | 93 | 1018.0 |
| 20260507093102 | 67 | 17 | 0.0 | 0.0 | 0.00 | 0.00 | 0.00 | 93 | 1016.6 |
| 20260507092446 | 68 | 17 | 0.0 | 0.0 | 0.00 | 0.00 | 0.00 | 93 | 1018.0 |
| 20260507091941 | 68 | 17 | 0.0 | 0.0 | 0.00 | 0.00 | 0.00 | 93 | 1017.8 |
| 20260507091520 | 68 | 17 | 0.0 | 0.0 | 0.00 | 0.00 | 0.00 | 93 | 1016.6 |
| 20260507091440 | 68 | 17 | 0.0 | 0.0 | 0.00 | 0.00 | 0.00 | 93 | 1018.0 |
| 20260507090937 | 68 | 17 | 0.0 | 0.0 | 0.00 | 0.00 | 0.00 | 93 | 1018.0 |
| 20260507090438 | 68 | 17 | 0.0 | 0.0 | 0.00 | 0.00 | 0.00 | 93 | 1018.1 |
| 20260507085938 | 69 | 17 | 0.0 | 0.0 | 0.00 | 0.00 | 0.00 | 93 | 1018.0 |
| 20260507085436 | 69 | 17 | 0.0 | 0.0 | 0.00 | 0.00 | 0.00 | 93 | 1018.1 |
| 20260507084935 | 69 | 17 | 0.0 | 0.0 | 0.00 | 0.00 | 0.00 | 93 | 1018.0 |
| 20260507084537 | 68 | 17 | 0.0 | 0.0 | 0.00 | 0.00 | 0.00 | 93 | 1016.7 |
| 20260507084438 | 69 | 17 | 0.0 | 0.0 | 0.00 | 0.00 | 0.00 | 93 | 1018.1 |
| 20260507083934 | 69 | 17 | 0.0 | 0.0 | 0.00 | 0.00 | 0.00 | 93 | 1018.0 |
| 20260507083432 | 69 | 17 | 0.0 | 0.0 | 0.00 | 0.00 | 0.00 | 93 | 1018.0 |
| 20260507083024 | 68 | 47 | 0.0 | 0.0 | 0.00 | 0.00 | 0.00 | 93 | 1016.8 |
| 20260507082931 | 69 | 47 | 0.0 | 0.0 | 0.00 | 0.00 | 0.00 | 93 | 1018.1 |
| 20260507082428 | 69 | 47 | 0.0 | 0.0 | 0.00 | 0.00 | 0.00 | 93 | 1018.0 |
| 20260507082154 | 69 | 175 | 0.0 | 0.0 | 0.00 | 0.00 | 0.00 | 93 | 1018.0 |
| 20260507081509 | 69 | 175 | 0.0 | 0.0 | 0.00 | 0.00 | 0.00 | 93 | 1016.6 |
| 20260507081419 | 69 | 175 | 0.0 | 0.0 | 0.00 | 0.00 | 0.00 | 93 | 1017.8 |
| 20260507080920 | 69 | 175 | 0.0 | 0.0 | 0.00 | 0.00 | 0.00 | 93 | 1017.8 |
| 20260507080419 | 69 | 175 | 0.0 | 0.0 | 0.00 | 0.00 | 0.00 | 93 | 1018.0 |
| 20260507080054 | 68 | 175 | 0.0 | 0.0 | 0.00 | 0.00 | 0.00 | 93 | 1016.6 |
| 20260507075919 | 69 | 175 | 0.0 | 0.0 | 0.00 | 0.00 | 0.00 | 93 | 1017.8 |
| 20260507075419 | 69 | 175 | 0.0 | 0.0 | 0.00 | 0.00 | 0.00 | 93 | 1018.0 |
| 20260507074917 | 69 | 175 | 0.0 | 0.0 | 0.00 | 0.00 | 0.00 | 93 | 1018.0 |
| 20260507074538 | 68 | 175 | 0.0 | 0.0 | 0.00 | 0.00 | 0.00 | 93 | 1016.6 |
| 20260507074418 | 69 | 175 | 0.0 | 0.0 | 0.00 | 0.00 | 0.00 | 93 | 1018.0 |
| 20260507073918 | 69 | 175 | 0.0 | 0.0 | 0.00 | 0.00 | 0.00 | 93 | 1018.1 |
| 20260507073416 | 69 | 175 | 0.0 | 0.0 | 0.00 | 0.00 | 0.00 | 93 | 1018.1 |
| 20260507073021 | 69 | 175 | 0.0 | 0.0 | 0.00 | 0.00 | 0.00 | 93 | 1016.7 |
| 20260507072916 | 70 | 175 | 0.0 | 0.0 | 0.00 | 0.00 | 0.00 | 93 | 1018.1 |
| 20260507072416 | 70 | 175 | 0.0 | 0.0 | 0.00 | 0.00 | 0.00 | 93 | 1018.0 |
| 20260507071916 | 70 | 175 | 0.0 | 0.0 | 0.00 | 0.00 | 0.00 | 93 | 1018.2 |
| 20260507071647 | 69 | 175 | 0.0 | 0.0 | 0.00 | 0.00 | 0.00 | 94 | 1018.1 |
| 20260507071536 | 69 | 175 | 0.0 | 0.0 | 0.00 | 0.00 | 0.00 | 94 | 1016.8 |
| 20260507070915 | 69 | 175 | 0.0 | 0.0 | 0.00 | 0.00 | 0.00 | 93 | 1018.2 |
| 20260507070419 | 69 | 175 | 0.0 | 0.0 | 0.00 | 0.00 | 0.00 | 93 | 1018.3 |
| 20260507070012 | 68 | 175 | 0.0 | 0.0 | 0.00 | 0.00 | 0.00 | 93 | 1017.0 |
| 20260507065915 | 69 | 175 | 0.0 | 0.0 | 0.00 | 0.00 | 0.00 | 93 | 1018.3 |
| 20260507065648 | 69 | 175 | 0.0 | 0.0 | 0.00 | 0.00 | 0.00 | 93 | 1018.2 |
| 20260507064915 | 69 | 175 | 0.0 | 0.0 | 0.00 | 0.00 | 0.00 | 93 | 1018.3 |
| 20260507064603 | 68 | 175 | 0.0 | 0.0 | 0.00 | 0.00 | 0.00 | 93 | 1017.0 |
| 20260507064411 | 69 | 175 | 0.0 | 0.0 | 0.00 | 0.00 | 0.00 | 93 | 1018.4 |
| 20260507063911 | 69 | 175 | 0.0 | 0.0 | 0.00 | 0.00 | 0.00 | 93 | 1018.4 |
| 20260507063642 | 69 | 175 | 0.0 | 0.0 | 0.00 | 0.00 | 0.00 | 93 | 1018.5 |
| 20260507063056 | 68 | 175 | 0.0 | 0.0 | 0.00 | 0.00 | 0.00 | 93 | 1017.3 |
| 20260507062911 | 69 | 175 | 0.0 | 0.0 | 0.00 | 0.00 | 0.00 | 93 | 1018.5 |
| 20260507062404 | 69 | 175 | 0.0 | 0.9 | 0.00 | 0.00 | 0.00 | 93 | 1018.7 |
| 20260507061905 | 69 | 175 | 0.0 | 0.9 | 0.00 | 0.00 | 0.00 | 93 | 1018.7 |
| 20260507061551 | 68 | 175 | 0.0 | 0.0 | 0.00 | 0.00 | 0.00 | 93 | 1017.4 |
| 20260507061406 | 69 | 175 | 0.0 | 0.0 | 0.00 | 0.00 | 0.00 | 93 | 1018.7 |
| 20260507060907 | 69 | 175 | 0.0 | 0.0 | 0.00 | 0.00 | 0.00 | 93 | 1018.7 |
| 20260507060407 | 69 | 211 | 0.0 | 0.0 | 0.00 | 0.00 | 0.00 | 93 | 1018.9 |
| 20260507060049 | 68 | 211 | 0.0 | 0.0 | 0.00 | 0.00 | 0.00 | 93 | 1017.6 |
| 20260507055906 | 69 | 244 | 0.0 | 0.0 | 0.00 | 0.00 | 0.00 | 93 | 1018.9 |
| 20260507055409 | 69 | 244 | 0.0 | 0.0 | 0.00 | 0.00 | 0.00 | 93 | 1019.0 |
| 20260507054857 | 69 | 244 | 0.0 | 0.0 | 0.00 | 0.00 | 0.00 | 93 | 1019.0 |
| 20260507054546 | 68 | 244 | 0.0 | 0.0 | 0.00 | 0.00 | 0.00 | 93 | 1017.8 |
| 20260507054357 | 69 | 244 | 0.0 | 0.0 | 0.00 | 0.00 | 0.00 | 93 | 1019.1 |
| 20260507053855 | 69 | 244 | 0.0 | 0.0 | 0.00 | 0.00 | 0.00 | 93 | 1019.1 |
| 20260507053355 | 69 | 244 | 0.0 | 0.0 | 0.00 | 0.00 | 0.00 | 93 | 1019.2 |
| 20260507053038 | 68 | 244 | 0.0 | 0.0 | 0.00 | 0.00 | 0.00 | 93 | 1017.9 |
| 20260507052856 | 69 | 244 | 0.0 | 0.0 | 0.00 | 0.00 | 0.00 | 93 | 1019.3 |
| 20260507052355 | 69 | 244 | 0.0 | 0.0 | 0.00 | 0.00 | 0.00 | 93 | 1019.4 |
| 20260507052133 | 69 | 244 | 0.0 | 0.0 | 0.00 | 0.00 | 0.00 | 93 | 1019.5 |
| 20260507051523 | 69 | 244 | 0.0 | 0.0 | 0.00 | 0.00 | 0.00 | 93 | 1018.3 |
| 20260507051353 | 69 | 244 | 0.0 | 0.0 | 0.00 | 0.00 | 0.00 | 93 | 1019.7 |
| 20260507050851 | 69 | 244 | 0.0 | 0.0 | 0.00 | 0.00 | 0.00 | 93 | 1019.7 |
| 20260507050351 | 69 | 244 | 0.0 | 0.0 | 0.00 | 0.00 | 0.00 | 93 | 1019.7 |
| 20260507050017 | 68 | 244 | 0.0 | 0.0 | 0.00 | 0.00 | 0.00 | 93 | 1018.5 |
| 20260507045845 | 69 | 244 | 0.0 | 0.0 | 0.00 | 0.00 | 0.00 | 93 | 1019.8 |
| 20260507045611 | 69 | 244 | 0.0 | 0.0 | 0.00 | 0.00 | 0.00 | 93 | 1019.8 |
| 20260507044838 | 69 | 244 | 0.0 | 0.9 | 0.00 | 0.00 | 0.00 | 93 | 1019.9 |
| 20260507044501 | 68 | 244 | 0.0 | 0.9 | 0.00 | 0.00 | 0.00 | 93 | 1018.7 |
| 20260507044337 | 69 | 244 | 0.0 | 0.9 | 0.00 | 0.00 | 0.00 | 93 | 1020.0 |
| 20260507043834 | 69 | 244 | 0.0 | 0.9 | 0.00 | 0.00 | 0.00 | 93 | 1020.0 |
| 20260507043331 | 69 | 244 | 0.0 | 0.0 | 0.00 | 0.00 | 0.00 | 93 | 1020.1 |
| 20260507043041 | 68 | 244 | 0.0 | 0.0 | 0.00 | 0.00 | 0.00 | 93 | 1018.8 |
| 20260507042833 | 69 | 244 | 0.0 | 0.0 | 0.00 | 0.00 | 0.00 | 93 | 1020.1 |
| 20260507042332 | 69 | 244 | 0.0 | 0.0 | 0.00 | 0.00 | 0.00 | 93 | 1020.2 |
| 20260507041829 | 69 | 244 | 0.0 | 0.0 | 0.00 | 0.00 | 0.00 | 93 | 1020.2 |
| 20260507041523 | 68 | 244 | 0.0 | 0.0 | 0.00 | 0.00 | 0.00 | 93 | 1019.0 |
| 20260507041331 | 69 | 244 | 0.0 | 0.0 | 0.00 | 0.00 | 0.00 | 93 | 1020.4 |
| 20260507040827 | 69 | 244 | 0.0 | 0.0 | 0.00 | 0.00 | 0.00 | 93 | 1020.4 |
| 20260507040327 | 68 | 244 | 0.0 | 0.0 | 0.00 | 0.00 | 0.00 | 93 | 1020.4 |
| 20260507040044 | 68 | 244 | 0.0 | 0.0 | 0.00 | 0.00 | 0.00 | 93 | 1019.2 |
| 20260507035825 | 68 | 244 | 0.0 | 0.0 | 0.00 | 0.00 | 0.00 | 93 | 1020.5 |
| 20260507035323 | 68 | 244 | 0.0 | 0.0 | 0.00 | 0.00 | 0.00 | 93 | 1020.5 |
| 20260507034821 | 68 | 244 | 0.0 | 1.7 | 0.00 | 0.00 | 0.00 | 92 | 1020.6 |
| 20260507034533 | 68 | 244 | 0.0 | 1.7 | 0.00 | 0.00 | 0.00 | 92 | 1019.2 |
| 20260507034322 | 68 | 244 | 0.0 | 1.7 | 0.00 | 0.00 | 0.00 | 92 | 1020.5 |
| 20260507033820 | 68 | 244 | 0.0 | 0.0 | 0.00 | 0.00 | 0.00 | 92 | 1020.6 |
| 20260507033548 | 68 | 244 | 0.0 | 0.0 | 0.00 | 0.00 | 0.00 | 92 | 1020.6 |
| 20260507033048 | 68 | 244 | 0.0 | 0.0 | 0.00 | 0.00 | 0.00 | 92 | 1020.6 |
| 20260507033016 | 68 | 244 | 0.0 | 0.0 | 0.00 | 0.00 | 0.00 | 92 | 1019.3 |
| 20260507032319 | 68 | 244 | 0.0 | 0.0 | 0.00 | 0.00 | 0.00 | 92 | 1020.5 |
| 20260507032112 | 68 | 244 | 0.0 | 0.9 | 0.00 | 0.00 | 0.00 | 92 | 1020.7 |
| 20260507031816 | 69 | 244 | 0.0 | 0.0 | 0.00 | 0.00 | 0.00 | 93 | 1020.8 |
| 20260507031555 | 68 | 244 | 0.0 | 0.0 | 0.00 | 0.00 | 0.00 | 93 | 1019.4 |
| 20260507031317 | 69 | 244 | 0.0 | 0.0 | 0.00 | 0.00 | 0.00 | 92 | 1020.7 |
| 20260507030549 | 68 | 244 | 0.0 | 0.9 | 0.00 | 0.00 | 0.00 | 92 | 1020.7 |
| 20260507030032 | 68 | 244 | 0.0 | 0.0 | 0.00 | 0.00 | 0.00 | 92 | 1019.4 |
| 20260507025815 | 68 | 244 | 0.0 | 0.0 | 0.00 | 0.00 | 0.00 | 92 | 1020.7 |
| 20260507025314 | 68 | 244 | 0.0 | 0.0 | 0.00 | 0.00 | 0.00 | 92 | 1020.6 |
| 20260507024817 | 69 | 244 | 0.0 | 0.9 | 0.00 | 0.00 | 0.00 | 92 | 1020.6 |
| 20260507024514 | 68 | 244 | 0.0 | 0.9 | 0.00 | 0.00 | 0.00 | 92 | 1019.2 |
| 20260507024316 | 69 | 244 | 0.0 | 0.9 | 0.00 | 0.00 | 0.00 | 92 | 1020.6 |
| 20260507023811 | 69 | 244 | 0.0 | 0.9 | 0.00 | 0.00 | 0.00 | 92 | 1020.6 |
| 20260507023312 | 69 | 244 | 0.0 | 0.9 | 0.00 | 0.00 | 0.00 | 92 | 1020.7 |
| 20260507023058 | 68 | 244 | 0.0 | 0.0 | 0.00 | 0.00 | 0.00 | 92 | 1019.2 |
| 20260507022810 | 69 | 244 | 0.0 | 0.0 | 0.00 | 0.00 | 0.00 | 92 | 1020.6 |
| 20260507022539 | 69 | 244 | 0.0 | 0.0 | 0.00 | 0.00 | 0.00 | 91 | 1020.7 |
| 20260507021806 | 69 | 244 | 0.0 | 0.0 | 0.00 | 0.00 | 0.00 | 91 | 1020.6 |
| 20260507021537 | 69 | 244 | 0.0 | 0.0 | 0.00 | 0.00 | 0.00 | 91 | 1019.2 |
| 20260507021307 | 69 | 244 | 0.0 | 0.0 | 0.00 | 0.00 | 0.00 | 92 | 1020.6 |
| 20260507020804 | 69 | 244 | 0.0 | 0.0 | 0.00 | 0.00 | 0.00 | 91 | 1020.6 |
| 20260507020534 | 69 | 244 | 0.0 | 0.0 | 0.00 | 0.00 | 0.00 | 91 | 1020.6 |
| 20260507020020 | 69 | 244 | 0.0 | 0.0 | 0.00 | 0.00 | 0.00 | 91 | 1019.3 |
| 20260507015758 | 70 | 244 | 0.0 | 0.0 | 0.00 | 0.00 | 0.00 | 91 | 1020.7 |
| 20260507015256 | 70 | 244 | 0.0 | 0.0 | 0.00 | 0.00 | 0.00 | 91 | 1020.6 |
| 20260507015032 | 70 | 244 | 0.0 | 0.0 | 0.00 | 0.00 | 0.00 | 91 | 1020.5 |
| 20260507014930 | 70 | 244 | 0.0 | 0.0 | 0.00 | 0.00 | 0.00 | 91 | 1020.5 |
| 20260507014504 | 69 | 244 | 0.0 | 0.0 | 0.00 | 0.00 | 0.00 | 91 | 1019.2 |
| 20260507013749 | 70 | 244 | 0.0 | 0.0 | 0.00 | 0.00 | 0.00 | 91 | 1020.4 |
| 20260507013246 | 70 | 244 | 0.0 | 0.0 | 0.00 | 0.00 | 0.00 | 91 | 1020.2 |
| 20260507013022 | 70 | 244 | 0.0 | 0.0 | 0.00 | 0.00 | 0.00 | 91 | 1019.0 |
| 20260507012721 | 70 | 244 | 0.0 | 0.0 | 0.00 | 0.00 | 0.00 | 91 | 1020.2 |
| 20260507012221 | 70 | 244 | 0.0 | 0.0 | 0.00 | 0.00 | 0.00 | 91 | 1020.1 |
| 20260507011721 | 70 | 244 | 0.0 | 0.0 | 0.00 | 0.00 | 0.00 | 91 | 1020.2 |
| 20260507011553 | 70 | 244 | 0.0 | 0.0 | 0.00 | 0.00 | 0.00 | 91 | 1018.8 |
| 20260507011217 | 70 | 244 | 0.0 | 0.0 | 0.00 | 0.00 | 0.00 | 91 | 1020.1 |
| 20260507010718 | 70 | 244 | 0.0 | 0.0 | 0.00 | 0.00 | 0.00 | 91 | 1020.1 |
| 20260507010218 | 70 | 244 | 0.0 | 0.9 | 0.00 | 0.00 | 0.00 | 91 | 1020.1 |
| 20260507010041 | 70 | 244 | 0.0 | 0.9 | 0.00 | 0.00 | 0.00 | 91 | 1018.7 |
| 20260507005717 | 70 | 244 | 0.0 | 0.9 | 0.00 | 0.00 | 0.00 | 91 | 1020.0 |
| 20260507005218 | 70 | 244 | 0.0 | 1.7 | 0.00 | 0.00 | 0.00 | 91 | 1020.0 |
| 20260507004949 | 71 | 244 | 0.0 | 1.7 | 0.00 | 0.00 | 0.00 | 90 | 1020.0 |
| 20260507004534 | 70 | 244 | 0.0 | 1.7 | 0.00 | 0.00 | 0.00 | 90 | 1018.7 |
| 20260507004223 | 71 | 244 | 0.0 | 1.7 | 0.00 | 0.00 | 0.00 | 90 | 1020.0 |
| 20260507003721 | 71 | 154 | 0.0 | 0.0 | 0.00 | 0.00 | 0.00 | 90 | 1019.9 |
| 20260507003217 | 71 | 154 | 0.0 | 0.9 | 0.00 | 0.00 | 0.00 | 90 | 1019.7 |
| 20260507003012 | 71 | 154 | 0.0 | 0.9 | 0.00 | 0.00 | 0.00 | 90 | 1018.5 |
| 20260507002716 | 71 | 154 | 0.0 | 0.9 | 0.00 | 0.00 | 0.00 | 90 | 1019.8 |
| 20260507002444 | 71 | 154 | 0.0 | 0.9 | 0.00 | 0.00 | 0.00 | 90 | 1019.8 |
| 20260507001714 | 71 | 154 | 0.0 | 0.9 | 0.00 | 0.00 | 0.00 | 90 | 1019.6 |
| 20260507001557 | 71 | 154 | 0.0 | 0.9 | 0.00 | 0.00 | 0.00 | 89 | 1018.3 |
| 20260507001213 | 71 | 175 | 0.0 | 0.9 | 0.00 | 0.00 | 0.00 | 89 | 1019.5 |
| 20260507000711 | 72 | 175 | 0.0 | 0.9 | 0.00 | 0.00 | 0.00 | 89 | 1019.5 |
| 20260507000447 | 72 | 175 | 0.0 | 0.0 | 0.00 | 0.00 | 0.00 | 88 | 1019.4 |
| 20260507000039 | 71 | 175 | 0.0 | 0.0 | 0.00 | 0.00 | 0.00 | 89 | 1018.1 |
| 20260506235711 | 72 | 98 | 0.0 | 0.0 | 0.00 | 0.00 | 0.00 | 88 | 1019.3 |
| 20260506235207 | 72 | 98 | 0.0 | 0.9 | 0.00 | 0.00 | 0.00 | 88 | 1019.4 |
| 20260506234707 | 72 | 98 | 0.0 | 0.9 | 0.00 | 0.00 | 0.00 | 87 | 1019.3 |
| 20260506234534 | 72 | 98 | 0.0 | 0.9 | 0.00 | 0.00 | 0.00 | 87 | 1017.9 |
| 20260506234205 | 73 | 98 | 0.0 | 1.7 | 0.00 | 0.00 | 0.00 | 87 | 1019.3 |
| 20260506233704 | 73 | 98 | 0.0 | 1.7 | 0.00 | 0.00 | 0.00 | 87 | 1019.2 |
| 20260506233206 | 73 | 44 | 0.0 | 1.7 | 0.00 | 0.00 | 0.00 | 86 | 1019.1 |
| 20260506233020 | 73 | 126 | 0.0 | 1.7 | 0.00 | 0.00 | 0.00 | 86 | 1017.5 |
| 20260506232702 | 73 | 169 | 0.0 | 1.7 | 0.00 | 0.00 | 0.00 | 86 | 1018.9 |
| 20260506232202 | 74 | 84 | 0.9 | 5.2 | 0.00 | 0.00 | 0.00 | 85 | 1018.9 |
| 20260506231703 | 74 | 324 | 0.9 | 5.2 | 0.00 | 0.00 | 0.00 | 85 | 1018.9 |
| 20260506231532 | 73 | 324 | 0.9 | 5.2 | 0.00 | 0.00 | 0.00 | 85 | 1017.5 |
| 20260506231159 | 74 | 69 | 0.0 | 3.5 | 0.00 | 0.00 | 0.00 | 84 | 1018.9 |
| 20260506230657 | 74 | 289 | 0.0 | 1.7 | 0.00 | 0.00 | 0.00 | 84 | 1018.9 |
| 20260506230157 | 75 | 289 | 0.0 | 1.7 | 0.00 | 0.00 | 0.00 | 84 | 1018.7 |
| 20260506230008 | 74 | 289 | 0.0 | 1.7 | 0.00 | 0.00 | 0.00 | 84 | 1017.3 |
| 20260506225656 | 75 | 273 | 0.0 | 1.7 | 0.00 | 0.00 | 0.00 | 84 | 1018.8 |
| 20260506225428 | 75 | 292 | 0.9 | 3.5 | 0.00 | 0.00 | 0.00 | 84 | 1018.8 |
| 20260506224658 | 75 | 290 | 0.9 | 3.5 | 0.00 | 0.00 | 0.00 | 84 | 1018.7 |
| 20260506224554 | 75 | 304 | 0.0 | 3.5 | 0.00 | 0.00 | 0.00 | 84 | 1017.2 |
| 20260506224155 | 76 | 142 | 0.0 | 4.3 | 0.00 | 0.00 | 0.00 | 83 | 1018.6 |
| 20260506223924 | 76 | 91 | 0.0 | 4.3 | 0.00 | 0.00 | 0.00 | 82 | 1018.5 |
| 20260506223154 | 77 | 290 | 0.0 | 3.5 | 0.00 | 0.00 | 0.00 | 82 | 1018.4 |
| 20260506223045 | 76 | 290 | 0.0 | 3.5 | 0.00 | 0.00 | 0.00 | 82 | 1017.0 |
| 20260506222918 | 77 | 290 | 0.9 | 3.5 | 0.00 | 0.00 | 0.00 | 81 | 1018.4 |
| 20260506222142 | 77 | 274 | 0.9 | 3.5 | 0.00 | 0.00 | 0.00 | 81 | 1018.4 |